Time,TemperatureF,DewpointF,PressureIn,WindDirection,WindDirectionDegrees,WindSpeedMPH,WindSpeedGustMPH,Humidity,HourlyPrecipIn,Conditions,Clouds,dailyrainin,SoftwareType,DateUTC
2013-04-25 00:00:00,64.7,57.7,30.09,SW,234,2.0,6.0,78,0.00,,---,0.00,VWS V14.01,2013-04-25 04:00:00,
2013-04-25 00:01:00,64.7,57.7,30.09,SW,234,1.0,6.0,78,0.00,,---,0.00,VWS V14.01,2013-04-25 04:01:00,
2013-04-25 00:02:00,64.7,57.7,30.10,SW,221,0.0,5.0,78,0.00,,---,0.00,VWS V14.01,2013-04-25 04:02:00,
2013-04-25 00:03:00,64.7,57.7,30.09,West,259,0.0,5.0,78,0.00,,---,0.00,VWS V14.01,2013-04-25 04:03:00,
2013-04-25 00:06:00,64.7,57.7,30.10,NW,304,4.0,5.0,78,0.00,,---,0.00,VWS V14.01,2013-04-25 04:06:00,
2013-04-25 00:11:00,64.5,57.8,30.09,West,273,1.0,5.0,79,0.00,,---,0.00,VWS V14.01,2013-04-25 04:11:00,
2013-04-25 00:16:00,64.3,57.7,30.10,West,278,1.0,3.0,79,0.00,,---,0.00,VWS V14.01,2013-04-25 04:16:00,
2013-04-25 00:21:00,64.1,57.8,30.10,WNW,286,0.0,5.0,80,0.00,,---,0.00,VWS V14.01,2013-04-25 04:21:00,
2013-04-25 00:26:00,63.8,57.5,30.10,WSW,254,4.0,8.0,80,0.00,,---,0.00,VWS V14.01,2013-04-25 04:26:00,
2013-04-25 00:31:00,64.0,57.7,30.10,WNW,292,2.0,2.0,80,0.00,,---,0.00,VWS V14.01,2013-04-25 04:31:00,
2013-04-25 00:36:00,63.8,57.5,30.10,West,280,5.0,6.0,80,0.00,,---,0.00,VWS V14.01,2013-04-25 04:36:00,
2013-04-25 00:41:00,63.8,57.5,30.10,WSW,247,0.0,7.0,80,0.00,,---,0.00,VWS V14.01,2013-04-25 04:41:00,
2013-04-25 00:46:00,63.6,57.3,30.10,West,263,1.0,3.0,80,0.00,,---,0.00,VWS V14.01,2013-04-25 04:46:00,
2013-04-25 00:51:00,63.4,57.5,30.10,West,259,0.0,5.0,81,0.00,,---,0.00,VWS V14.01,2013-04-25 04:51:00,
2013-04-25 00:56:00,63.4,57.5,30.10,WNW,296,1.0,5.0,81,0.00,,---,0.00,VWS V14.01,2013-04-25 04:56:00,
2013-04-25 01:01:00,63.4,57.5,30.10,WNW,298,2.0,2.0,81,0.00,,---,0.00,VWS V14.01,2013-04-25 05:01:00,
2013-04-25 01:06:00,63.2,57.6,30.10,WNW,302,1.0,2.0,82,0.00,,---,0.00,VWS V14.01,2013-04-25 05:06:00,
2013-04-25 01:11:00,63.2,57.6,30.10,West,278,0.0,3.0,82,0.00,,---,0.00,VWS V14.01,2013-04-25 05:11:00,
2013-04-25 01:17:00,63.0,57.4,30.10,West,281,2.0,3.0,82,0.00,,---,0.00,VWS V14.01,2013-04-25 05:17:00,
2013-04-25 01:22:00,63.3,57.7,30.10,WSW,250,1.0,8.0,82,0.00,,---,0.00,VWS V14.01,2013-04-25 05:22:00,
2013-04-25 01:27:00,63.5,57.9,30.10,WNW,284,0.0,8.0,82,0.00,,---,0.00,VWS V14.01,2013-04-25 05:27:00,
2013-04-25 01:32:00,63.5,57.9,30.10,West,261,3.0,6.0,82,0.00,,---,0.00,VWS V14.01,2013-04-25 05:32:00,
2013-04-25 01:37:00,63.3,57.7,30.10,West,263,3.0,6.0,82,0.00,,---,0.00,VWS V14.01,2013-04-25 05:37:00,
2013-04-25 01:42:00,63.3,57.7,30.10,West,269,1.0,7.0,82,0.00,,---,0.00,VWS V14.01,2013-04-25 05:42:00,
2013-04-25 01:47:00,63.2,57.6,30.10,West,259,1.0,2.0,82,0.00,,---,0.00,VWS V14.01,2013-04-25 05:47:00,
2013-04-25 01:52:00,63.1,57.5,30.10,WNW,298,3.0,5.0,82,0.00,,---,0.00,VWS V14.01,2013-04-25 05:52:00,
2013-04-25 01:57:00,63.1,57.9,30.10,West,271,1.0,7.0,83,0.00,,---,0.00,VWS V14.01,2013-04-25 05:57:00,
2013-04-25 02:02:00,63.1,57.9,30.10,WSW,257,2.0,4.0,83,0.00,,---,0.00,VWS V14.01,2013-04-25 06:02:00,
2013-04-25 02:07:00,63.0,57.8,30.10,WSW,238,0.0,4.0,83,0.00,,---,0.00,VWS V14.01,2013-04-25 06:07:00,
2013-04-25 02:12:00,62.8,57.6,30.10,WSW,255,1.0,5.0,83,0.00,,---,0.00,VWS V14.01,2013-04-25 06:12:00,
2013-04-25 02:17:00,62.6,57.7,30.10,WNW,302,0.0,2.0,84,0.00,,---,0.00,VWS V14.01,2013-04-25 06:17:00,
2013-04-25 02:23:00,62.6,57.7,30.10,West,281,1.0,4.0,84,0.00,,---,0.00,VWS V14.01,2013-04-25 06:23:00,
2013-04-25 02:28:00,62.6,57.7,30.10,West,281,0.0,4.0,84,0.00,,---,0.00,VWS V14.01,2013-04-25 06:28:00,
2013-04-25 02:33:00,62.5,57.6,30.10,NW,324,0.0,3.0,84,0.00,,---,0.00,VWS V14.01,2013-04-25 06:33:00,
2013-04-25 02:38:00,62.5,57.6,30.10,WNW,292,2.0,4.0,84,0.00,,---,0.00,VWS V14.01,2013-04-25 06:38:00,
2013-04-25 02:43:00,62.5,57.9,30.10,West,265,2.0,5.0,85,0.00,,---,0.00,VWS V14.01,2013-04-25 06:43:00,
2013-04-25 02:48:00,62.6,58.0,30.10,West,263,0.0,4.0,85,0.00,,---,0.00,VWS V14.01,2013-04-25 06:48:00,
2013-04-25 02:53:00,62.5,57.9,30.10,West,273,0.0,4.0,85,0.00,,---,0.00,VWS V14.01,2013-04-25 06:53:00,
2013-04-25 02:58:00,62.6,58.0,30.10,WSW,248,0.0,5.0,85,0.00,,---,0.00,VWS V14.01,2013-04-25 06:58:00,
2013-04-25 03:03:00,62.7,58.1,30.10,West,266,1.0,6.0,85,0.00,,---,0.00,VWS V14.01,2013-04-25 07:03:00,
2013-04-25 03:08:00,62.8,58.2,30.10,WNW,291,0.0,6.0,85,0.00,,---,0.00,VWS V14.01,2013-04-25 07:08:00,
2013-04-25 03:14:00,62.8,58.2,30.10,WNW,300,3.0,6.0,85,0.00,,---,0.00,VWS V14.01,2013-04-25 07:14:00,
2013-04-25 03:19:00,62.7,58.5,30.11,West,278,3.0,3.0,86,0.00,,---,0.00,VWS V14.01,2013-04-25 07:19:00,
2013-04-25 03:24:00,62.7,58.5,30.10,NW,313,0.0,4.0,86,0.00,,---,0.00,VWS V14.01,2013-04-25 07:24:00,
2013-04-25 03:29:00,62.6,58.4,30.11,NW,311,1.0,4.0,86,0.00,,---,0.00,VWS V14.01,2013-04-25 07:29:00,
2013-04-25 03:34:00,62.5,58.3,30.11,West,265,3.0,3.0,86,0.00,,---,0.00,VWS V14.01,2013-04-25 07:34:00,
2013-04-25 03:39:00,62.5,58.3,30.11,NW,315,0.0,5.0,86,0.00,,---,0.00,VWS V14.01,2013-04-25 07:39:00,
2013-04-25 03:44:00,62.4,58.5,30.11,WNW,292,2.0,5.0,87,0.00,,---,0.00,VWS V14.01,2013-04-25 07:44:00,
2013-04-25 03:49:00,62.3,58.4,30.11,WNW,287,2.0,3.0,87,0.00,,---,0.00,VWS V14.01,2013-04-25 07:49:00,
2013-04-25 03:54:00,62.3,58.4,30.12,West,271,0.0,3.0,87,0.00,,---,0.00,VWS V14.01,2013-04-25 07:54:00,
2013-04-25 03:59:00,62.3,58.4,30.12,WNW,283,0.0,5.0,87,0.00,,---,0.00,VWS V14.01,2013-04-25 07:59:00,
2013-04-25 04:04:00,62.2,58.3,30.12,WNW,283,0.0,1.0,87,0.00,,---,0.00,VWS V14.01,2013-04-25 08:04:00,
2013-04-25 04:09:00,62.0,58.1,30.12,WNW,283,0.0,1.0,87,0.00,,---,0.00,VWS V14.01,2013-04-25 08:09:00,
2013-04-25 04:14:00,61.8,58.2,30.12,WNW,302,1.0,2.0,88,0.00,,---,0.00,VWS V14.01,2013-04-25 08:14:00,
2013-04-25 04:19:00,61.7,58.1,30.12,WNW,302,0.0,2.0,88,0.00,,---,0.00,VWS V14.01,2013-04-25 08:19:00,
2013-04-25 04:25:00,61.4,57.8,30.13,WNW,302,0.0,3.0,88,0.00,,---,0.00,VWS V14.01,2013-04-25 08:25:00,
2013-04-25 04:30:00,60.9,57.3,30.13,WNW,302,0.0,3.0,88,0.00,,---,0.00,VWS V14.01,2013-04-25 08:30:00,
2013-04-25 04:35:00,60.6,57.3,30.13,NW,321,1.0,2.0,89,0.00,,---,0.00,VWS V14.01,2013-04-25 08:35:00,
2013-04-25 04:40:00,60.3,57.4,30.13,NW,320,1.0,2.0,90,0.00,,---,0.00,VWS V14.01,2013-04-25 08:40:00,
2013-04-25 04:45:00,60.1,57.2,30.13,NW,320,1.0,2.0,90,0.00,,---,0.00,VWS V14.01,2013-04-25 08:45:00,
2013-04-25 04:50:00,59.9,57.0,30.13,NW,320,0.0,1.0,90,0.00,,---,0.00,VWS V14.01,2013-04-25 08:50:00,
2013-04-25 04:55:00,59.7,57.1,30.13,NW,317,1.0,2.0,91,0.00,,---,0.00,VWS V14.01,2013-04-25 08:55:00,
2013-04-25 05:00:00,59.8,57.2,30.14,NNW,333,0.0,3.0,91,0.00,,---,0.00,VWS V14.01,2013-04-25 09:00:00,
2013-04-25 05:05:00,60.0,57.4,30.14,NW,326,1.0,4.0,91,0.00,,---,0.00,VWS V14.01,2013-04-25 09:05:00,
2013-04-25 05:10:00,60.2,57.6,30.14,WNW,298,0.0,4.0,91,0.00,,---,0.00,VWS V14.01,2013-04-25 09:10:00,
2013-04-25 05:15:00,60.4,57.5,30.15,NNW,333,1.0,8.0,90,0.00,,---,0.00,VWS V14.01,2013-04-25 09:15:00,
2013-04-25 05:20:00,60.5,57.2,30.15,North,355,7.0,7.0,89,0.00,,---,0.00,VWS V14.01,2013-04-25 09:20:00,
2013-04-25 05:26:00,60.5,56.6,30.15,North,350,8.0,9.0,87,0.00,,---,0.00,VWS V14.01,2013-04-25 09:26:00,
2013-04-25 05:31:00,60.4,55.2,30.16,NNW,330,3.0,9.0,83,0.00,,---,0.00,VWS V14.01,2013-04-25 09:31:00,
2013-04-25 05:36:00,60.1,53.6,30.16,ENE,57,2.0,7.0,79,0.00,,---,0.00,VWS V14.01,2013-04-25 09:36:00,
2013-04-25 05:41:00,59.8,52.2,30.17,NE,42,1.0,9.0,76,0.00,,---,0.00,VWS V14.01,2013-04-25 09:41:00,
2013-04-25 05:46:00,59.5,51.9,30.17,NNW,338,1.0,1.0,76,0.00,,---,0.00,VWS V14.01,2013-04-25 09:46:00,
2013-04-25 05:51:00,59.4,51.5,30.17,North,5,1.0,7.0,75,0.00,,---,0.00,VWS V14.01,2013-04-25 09:51:00,
2013-04-25 05:56:00,59.2,51.3,30.17,NNW,337,3.0,7.0,75,0.00,,---,0.00,VWS V14.01,2013-04-25 09:56:00,
2013-04-25 06:01:00,59.1,50.8,30.17,NNW,338,4.0,4.0,74,0.00,,---,0.00,VWS V14.01,2013-04-25 10:01:00,
2013-04-25 06:06:00,59.0,50.7,30.17,NW,309,5.0,8.0,74,0.00,,---,0.00,VWS V14.01,2013-04-25 10:06:00,
2013-04-25 06:11:00,58.8,50.9,30.18,NE,36,0.0,8.0,75,0.00,,---,0.00,VWS V14.01,2013-04-25 10:11:00,
2013-04-25 06:16:00,58.6,50.7,30.18,NNW,345,7.0,8.0,75,0.00,,---,0.00,VWS V14.01,2013-04-25 10:16:00,
2013-04-25 06:21:00,58.4,50.5,30.19,NE,41,0.0,8.0,75,0.00,,---,0.00,VWS V14.01,2013-04-25 10:21:00,
2013-04-25 06:26:00,58.1,50.2,30.19,NNW,336,3.0,8.0,75,0.00,,---,0.00,VWS V14.01,2013-04-25 10:26:00,
2013-04-25 06:31:00,57.9,50.0,30.20,NNW,347,2.0,3.0,75,0.00,,---,0.00,VWS V14.01,2013-04-25 10:31:00,
2013-04-25 06:36:00,57.6,49.4,30.20,NNE,26,2.0,5.0,74,0.00,,---,0.00,VWS V14.01,2013-04-25 10:36:00,
2013-04-25 06:42:00,57.3,49.1,30.21,NE,37,4.0,8.0,74,0.00,,---,0.00,VWS V14.01,2013-04-25 10:42:00,
2013-04-25 06:47:00,56.9,48.3,30.21,NNW,333,6.0,7.0,73,0.00,,---,0.00,VWS V14.01,2013-04-25 10:47:00,
2013-04-25 06:52:00,56.6,47.7,30.22,NNW,330,2.0,8.0,72,0.00,,---,0.00,VWS V14.01,2013-04-25 10:52:00,
2013-04-25 06:57:00,56.3,47.4,30.22,ESE,107,1.0,8.0,72,0.00,,---,0.00,VWS V14.01,2013-04-25 10:57:00,
2013-04-25 07:02:00,56.0,47.1,30.23,NNE,28,1.0,6.0,72,0.00,,---,0.00,VWS V14.01,2013-04-25 11:02:00,
2013-04-25 07:07:00,55.9,47.0,30.23,NW,313,8.0,9.0,72,0.00,,---,0.00,VWS V14.01,2013-04-25 11:07:00,
2013-04-25 07:12:00,55.7,46.8,30.23,NW,322,4.0,9.0,72,0.00,,---,0.00,VWS V14.01,2013-04-25 11:12:00,
2013-04-25 07:17:00,55.5,46.6,30.23,NW,308,5.0,5.0,72,0.00,,---,0.00,VWS V14.01,2013-04-25 11:17:00,
2013-04-25 07:22:00,55.3,46.8,30.24,WNW,287,1.0,5.0,73,0.00,,---,0.00,VWS V14.01,2013-04-25 11:22:00,
2013-04-25 07:27:00,55.1,46.2,30.24,NNW,342,4.0,6.0,72,0.00,,---,0.00,VWS V14.01,2013-04-25 11:27:00,
2013-04-25 07:33:00,54.9,45.7,30.25,South,175,3.0,6.0,71,0.00,,---,0.00,VWS V14.01,2013-04-25 11:33:00,
2013-04-25 07:38:00,54.6,45.4,30.25,North,11,1.0,7.0,71,0.00,,---,0.00,VWS V14.01,2013-04-25 11:38:00,
2013-04-25 07:43:00,54.4,44.8,30.25,East,94,1.0,7.0,70,0.00,,---,0.00,VWS V14.01,2013-04-25 11:43:00,
2013-04-25 07:48:00,54.3,44.0,30.26,NE,39,7.0,11.0,68,0.00,,---,0.00,VWS V14.01,2013-04-25 11:48:00,
2013-04-25 07:53:00,54.0,43.3,30.26,NNW,335,6.0,11.0,67,0.00,,---,0.00,VWS V14.01,2013-04-25 11:53:00,
2013-04-25 07:58:00,53.8,43.5,30.26,North,5,4.0,11.0,68,0.00,,---,0.00,VWS V14.01,2013-04-25 11:58:00,
2013-04-25 08:03:00,53.8,43.5,30.26,NNW,335,0.0,7.0,68,0.00,,---,0.00,VWS V14.01,2013-04-25 12:03:00,
2013-04-25 08:08:00,53.9,44.0,30.26,NNE,22,1.0,7.0,69,0.00,,---,0.00,VWS V14.01,2013-04-25 12:08:00,
2013-04-25 08:13:00,54.5,43.4,30.26,NW,315,9.0,13.0,66,0.00,,---,0.00,VWS V14.01,2013-04-25 12:13:00,
2013-04-25 08:19:00,54.2,42.7,30.26,NNW,341,10.0,10.0,65,0.00,,---,0.00,VWS V14.01,2013-04-25 12:19:00,
2013-04-25 08:24:00,54.2,42.3,30.27,NW,320,5.0,12.0,64,0.00,,---,0.00,VWS V14.01,2013-04-25 12:24:00,
2013-04-25 08:29:00,53.7,41.8,30.26,NNW,348,5.0,14.0,64,0.00,,---,0.00,VWS V14.01,2013-04-25 12:29:00,
2013-04-25 08:34:00,54.0,42.5,30.27,NW,315,1.0,9.0,65,0.00,,---,0.00,VWS V14.01,2013-04-25 12:34:00,
2013-04-25 08:40:00,54.8,42.9,30.27,North,355,1.0,9.0,64,0.00,,---,0.00,VWS V14.01,2013-04-25 12:40:00,
2013-04-25 08:45:00,54.9,42.6,30.28,ENE,75,4.0,11.0,63,0.00,,---,0.00,VWS V14.01,2013-04-25 12:45:00,
2013-04-25 08:50:00,54.5,42.2,30.28,East,99,1.0,10.0,63,0.00,,---,0.00,VWS V14.01,2013-04-25 12:50:00,
2013-04-25 08:55:00,54.6,41.9,30.28,SE,130,3.0,10.0,62,0.00,,---,0.00,VWS V14.01,2013-04-25 12:55:00,
2013-04-25 09:00:00,55.3,42.5,30.29,NNE,13,5.0,10.0,62,0.00,,---,0.00,VWS V14.01,2013-04-25 13:00:00,
2013-04-25 09:05:00,55.4,42.2,30.29,NNE,28,3.0,12.0,61,0.00,,---,0.00,VWS V14.01,2013-04-25 13:05:00,
2013-04-25 09:10:00,55.8,41.7,30.29,ESE,106,8.0,12.0,59,0.00,,---,0.00,VWS V14.01,2013-04-25 13:10:00,
2013-04-25 09:15:00,55.6,40.6,30.29,NNW,338,5.0,12.0,57,0.00,,---,0.00,VWS V14.01,2013-04-25 13:15:00,
2013-04-25 09:21:00,55.8,41.3,30.29,ENE,74,5.0,10.0,58,0.00,,---,0.00,VWS V14.01,2013-04-25 13:21:00,
2013-04-25 09:26:00,56.7,42.1,30.28,NNW,348,4.0,10.0,58,0.00,,---,0.00,VWS V14.01,2013-04-25 13:26:00,
2013-04-25 09:31:00,57.1,41.6,30.28,NNW,342,6.0,6.0,56,0.00,,---,0.00,VWS V14.01,2013-04-25 13:31:00,
2013-04-25 09:36:00,56.6,38.7,30.28,NNE,17,4.0,8.0,51,0.00,,---,0.00,VWS V14.01,2013-04-25 13:36:00,
2013-04-25 09:41:00,56.5,40.1,30.29,NE,46,3.0,8.0,54,0.00,,---,0.00,VWS V14.01,2013-04-25 13:41:00,
2013-04-25 09:46:00,57.1,40.6,30.29,NNE,19,4.0,4.0,54,0.00,,---,0.00,VWS V14.01,2013-04-25 13:46:00,
2013-04-25 09:51:00,57.3,40.3,30.28,SW,223,1.0,8.0,53,0.00,,---,0.00,VWS V14.01,2013-04-25 13:51:00,
2013-04-25 09:57:00,58.0,41.0,30.28,North,355,3.0,8.0,53,0.00,,---,0.00,VWS V14.01,2013-04-25 13:57:00,
2013-04-25 10:02:00,58.3,40.3,30.29,NW,311,3.0,3.0,51,0.00,,---,0.00,VWS V14.01,2013-04-25 14:02:00,
2013-04-25 10:07:00,58.4,40.9,30.29,North,355,1.0,7.0,52,0.00,,---,0.00,VWS V14.01,2013-04-25 14:07:00,
2013-04-25 10:12:00,58.5,40.5,30.29,NNW,336,6.0,7.0,51,0.00,,---,0.00,VWS V14.01,2013-04-25 14:12:00,
2013-04-25 10:17:00,58.6,41.0,30.29,ESE,107,1.0,4.0,52,0.00,,---,0.00,VWS V14.01,2013-04-25 14:17:00,
2013-04-25 10:22:00,58.8,43.2,30.29,NE,55,1.0,4.0,56,0.00,,---,0.00,VWS V14.01,2013-04-25 14:22:00,
2013-04-25 10:27:00,58.9,41.8,30.29,NNW,348,5.0,8.0,53,0.00,,---,0.00,VWS V14.01,2013-04-25 14:27:00,
2013-04-25 10:33:00,58.9,41.8,30.28,NE,44,2.0,8.0,53,0.00,,---,0.00,VWS V14.01,2013-04-25 14:33:00,
2013-04-25 10:38:00,58.7,42.6,30.28,ENE,65,2.0,10.0,55,0.00,,---,0.00,VWS V14.01,2013-04-25 14:38:00,
2013-04-25 10:43:00,58.6,42.0,30.28,ENE,78,0.0,10.0,54,0.00,,---,0.00,VWS V14.01,2013-04-25 14:43:00,
2013-04-25 10:48:00,59.7,43.0,30.28,NE,38,3.0,7.0,54,0.00,,---,0.00,VWS V14.01,2013-04-25 14:48:00,
2013-04-25 10:53:00,59.6,42.0,30.28,ENE,78,3.0,7.0,52,0.00,,---,0.00,VWS V14.01,2013-04-25 14:53:00,
2013-04-25 10:58:00,59.0,43.8,30.28,ESE,121,8.0,9.0,57,0.00,,---,0.00,VWS V14.01,2013-04-25 14:58:00,
2013-04-25 11:03:00,58.6,43.0,30.28,NNE,14,3.0,5.0,56,0.00,,---,0.00,VWS V14.01,2013-04-25 15:03:00,
2013-04-25 11:08:00,59.2,42.6,30.28,ESE,104,2.0,7.0,54,0.00,,---,0.00,VWS V14.01,2013-04-25 15:08:00,
2013-04-25 11:14:00,60.0,44.7,30.28,NNE,19,2.0,7.0,57,0.00,,---,0.00,VWS V14.01,2013-04-25 15:14:00,
2013-04-25 11:19:00,61.6,46.2,30.28,NNE,28,2.0,5.0,57,0.00,,---,0.00,VWS V14.01,2013-04-25 15:19:00,
2013-04-25 11:24:00,62.2,45.4,30.28,NNW,333,4.0,7.0,54,0.00,,---,0.00,VWS V14.01,2013-04-25 15:24:00,
2013-04-25 11:29:00,62.0,44.2,30.28,ENE,64,3.0,7.0,52,0.00,,---,0.00,VWS V14.01,2013-04-25 15:29:00,
2013-04-25 11:34:00,62.5,48.4,30.28,SE,132,1.0,3.0,60,0.00,,---,0.00,VWS V14.01,2013-04-25 15:34:00,
2013-04-25 11:39:00,61.9,45.1,30.28,ESE,121,0.0,8.0,54,0.00,,---,0.00,VWS V14.01,2013-04-25 15:39:00,
2013-04-25 11:44:00,62.2,46.3,30.28,NNW,333,5.0,8.0,56,0.00,,---,0.00,VWS V14.01,2013-04-25 15:44:00,
2013-04-25 11:49:00,63.1,48.1,30.28,NNE,24,0.0,5.0,58,0.00,,---,0.00,VWS V14.01,2013-04-25 15:49:00,
2013-04-25 11:54:00,62.9,47.5,30.28,WNW,298,6.0,7.0,57,0.00,,---,0.00,VWS V14.01,2013-04-25 15:54:00,
2013-04-25 12:00:00,63.1,46.2,30.29,NNW,347,0.0,9.0,54,0.00,,---,0.00,VWS V14.01,2013-04-25 16:00:00,
2013-04-25 12:05:00,62.8,45.4,30.28,ENE,57,0.0,7.0,53,0.00,,---,0.00,VWS V14.01,2013-04-25 16:05:00,
2013-04-25 12:10:00,62.3,43.4,30.28,South,183,2.0,7.0,50,0.00,,---,0.00,VWS V14.01,2013-04-25 16:10:00,
2013-04-25 12:15:00,63.3,44.9,30.29,NNW,336,4.0,7.0,51,0.00,,---,0.00,VWS V14.01,2013-04-25 16:15:00,
2013-04-25 12:20:00,65.2,47.7,30.29,NNE,32,1.0,6.0,53,0.00,,---,0.00,VWS V14.01,2013-04-25 16:20:00,
2013-04-25 12:25:00,64.9,46.4,30.29,North,11,1.0,7.0,51,0.00,,---,0.00,VWS V14.01,2013-04-25 16:25:00,
2013-04-25 12:30:00,63.4,43.9,30.28,SSW,199,1.0,7.0,49,0.00,,---,0.00,VWS V14.01,2013-04-25 16:30:00,
2013-04-25 12:35:00,63.8,46.8,30.28,West,279,1.0,3.0,54,0.00,,---,0.00,VWS V14.01,2013-04-25 16:35:00,
2013-04-25 12:41:00,65.8,51.5,30.28,NNE,18,2.0,5.0,60,0.00,,---,0.00,VWS V14.01,2013-04-25 16:41:00,
2013-04-25 12:46:00,66.2,49.1,30.28,NE,49,1.0,4.0,54,0.00,,---,0.00,VWS V14.01,2013-04-25 16:46:00,
2013-04-25 12:51:00,65.6,47.0,30.28,ESE,120,1.0,5.0,51,0.00,,---,0.00,VWS V14.01,2013-04-25 16:51:00,
2013-04-25 12:56:00,65.2,49.6,30.28,NW,305,3.0,6.0,57,0.00,,---,0.00,VWS V14.01,2013-04-25 16:56:00,
2013-04-25 13:01:00,66.3,49.7,30.28,NNW,335,1.0,2.0,55,0.00,,---,0.00,VWS V14.01,2013-04-25 17:01:00,
2013-04-25 13:06:00,66.2,47.0,30.28,NNE,23,3.0,7.0,50,0.00,,---,0.00,VWS V14.01,2013-04-25 17:06:00,
2013-04-25 13:11:00,65.6,49.5,30.27,ESE,102,0.0,7.0,56,0.00,,---,0.00,VWS V14.01,2013-04-25 17:11:00,
2013-04-25 13:17:00,66.9,47.1,30.28,NW,311,3.0,4.0,49,0.00,,---,0.00,VWS V14.01,2013-04-25 17:17:00,
2013-04-25 13:22:00,67.1,48.4,30.27,North,349,5.0,5.0,51,0.00,,---,0.00,VWS V14.01,2013-04-25 17:22:00,
2013-04-25 13:27:00,66.9,49.2,30.27,NW,323,1.0,8.0,53,0.00,,---,0.00,VWS V14.01,2013-04-25 17:27:00,
2013-04-25 13:32:00,67.7,50.5,30.28,NW,320,3.0,6.0,54,0.00,,---,0.00,VWS V14.01,2013-04-25 17:32:00,
2013-04-25 13:37:00,68.3,50.0,30.28,NNW,348,7.0,8.0,52,0.00,,---,0.00,VWS V14.01,2013-04-25 17:37:00,
2013-04-25 13:42:00,68.1,48.2,30.27,SE,138,2.0,8.0,49,0.00,,---,0.00,VWS V14.01,2013-04-25 17:42:00,
2013-04-25 13:47:00,67.9,49.7,30.28,NNE,13,2.0,6.0,52,0.00,,---,0.00,VWS V14.01,2013-04-25 17:47:00,
2013-04-25 13:52:00,68.6,49.8,30.28,NNW,332,6.0,9.0,51,0.00,,---,0.00,VWS V14.01,2013-04-25 17:52:00,
2013-04-25 13:58:00,68.2,47.2,30.27,NW,312,2.0,9.0,47,0.00,,---,0.00,VWS V14.01,2013-04-25 17:58:00,
2013-04-25 14:03:00,67.1,46.8,30.27,NE,42,2.0,4.0,48,0.00,,---,0.00,VWS V14.01,2013-04-25 18:03:00,
2013-04-25 14:08:00,68.3,50.0,30.27,NNW,335,5.0,7.0,52,0.00,,---,0.00,VWS V14.01,2013-04-25 18:08:00,
2013-04-25 14:13:00,68.8,50.0,30.27,North,360,2.0,7.0,51,0.00,,---,0.00,VWS V14.01,2013-04-25 18:13:00,
2013-04-25 14:18:00,68.2,46.1,30.27,WSW,243,0.0,7.0,45,0.00,,---,0.00,VWS V14.01,2013-04-25 18:18:00,
2013-04-25 14:23:00,68.9,51.1,30.27,NW,319,5.0,7.0,53,0.00,,---,0.00,VWS V14.01,2013-04-25 18:23:00,
2013-04-25 14:28:00,69.4,46.6,30.28,North,360,1.0,8.0,44,0.00,,---,0.00,VWS V14.01,2013-04-25 18:28:00,
2013-04-25 14:33:00,68.6,48.7,30.27,SE,135,0.0,4.0,49,0.00,,---,0.00,VWS V14.01,2013-04-25 18:33:00,
2013-04-25 14:38:00,68.9,46.7,30.27,WNW,294,1.0,8.0,45,0.00,,---,0.00,VWS V14.01,2013-04-25 18:38:00,
2013-04-25 14:44:00,70.3,52.4,30.27,NW,324,2.0,8.0,53,0.00,,---,0.00,VWS V14.01,2013-04-25 18:44:00,
2013-04-25 14:49:00,69.4,47.7,30.27,SSE,165,0.0,5.0,46,0.00,,---,0.00,VWS V14.01,2013-04-25 18:49:00,
2013-04-25 14:54:00,69.2,47.6,30.27,NE,39,0.0,6.0,46,0.00,,---,0.00,VWS V14.01,2013-04-25 18:54:00,
2013-04-25 14:59:00,69.0,48.0,30.27,NW,311,3.0,6.0,47,0.00,,---,0.00,VWS V14.01,2013-04-25 18:59:00,
2013-04-25 15:04:00,67.5,44.2,30.27,East,94,0.0,2.0,43,0.00,,---,0.00,VWS V14.01,2013-04-25 19:04:00,
2013-04-25 15:09:00,68.8,47.8,30.26,West,280,4.0,5.0,47,0.00,,---,0.00,VWS V14.01,2013-04-25 19:09:00,
2013-04-25 15:14:00,69.2,50.8,30.26,NNW,334,3.0,6.0,52,0.00,,---,0.00,VWS V14.01,2013-04-25 19:14:00,
2013-04-25 15:19:00,69.5,47.8,30.26,NNW,331,2.0,7.0,46,0.00,,---,0.00,VWS V14.01,2013-04-25 19:19:00,
2013-04-25 15:24:00,69.0,44.3,30.26,South,179,2.0,7.0,41,0.00,,---,0.00,VWS V14.01,2013-04-25 19:24:00,
2013-04-25 15:30:00,69.6,45.5,30.25,NNE,27,0.0,7.0,42,0.00,,---,0.00,VWS V14.01,2013-04-25 19:30:00,
2013-04-25 15:35:00,68.8,46.6,30.25,ESE,117,3.0,5.0,45,0.00,,---,0.00,VWS V14.01,2013-04-25 19:35:00,
2013-04-25 15:40:00,68.8,42.9,30.25,ESE,120,1.0,5.0,39,0.00,,---,0.00,VWS V14.01,2013-04-25 19:40:00,
2013-04-25 15:45:00,68.7,43.4,30.25,ESE,105,3.0,5.0,40,0.00,,---,0.00,VWS V14.01,2013-04-25 19:45:00,
2013-04-25 15:50:00,69.6,42.9,30.25,ESE,114,4.0,5.0,38,0.00,,---,0.00,VWS V14.01,2013-04-25 19:50:00,
2013-04-25 15:55:00,69.0,44.3,30.25,ESE,122,0.0,7.0,41,0.00,,---,0.00,VWS V14.01,2013-04-25 19:55:00,
2013-04-25 16:00:00,70.8,48.4,30.25,NW,309,0.0,7.0,45,0.00,,---,0.00,VWS V14.01,2013-04-25 20:00:00,
2013-04-25 16:05:00,70.8,46.0,30.24,SSW,211,0.0,4.0,41,0.00,,---,0.00,VWS V14.01,2013-04-25 20:05:00,
2013-04-25 16:10:00,70.7,43.9,30.24,NNE,19,2.0,4.0,38,0.00,,---,0.00,VWS V14.01,2013-04-25 20:10:00,
2013-04-25 16:15:00,69.9,42.5,30.24,ESE,116,3.0,5.0,37,0.00,,---,0.00,VWS V14.01,2013-04-25 20:15:00,
2013-04-25 16:20:00,69.7,41.6,30.24,ESE,112,1.0,7.0,36,0.00,,---,0.00,VWS V14.01,2013-04-25 20:20:00,
2013-04-25 16:26:00,71.1,45.6,30.24,NNW,336,0.0,7.0,40,0.00,,---,0.00,VWS V14.01,2013-04-25 20:26:00,
2013-04-25 16:31:00,71.2,42.9,30.24,NNW,344,3.0,7.0,36,0.00,,---,0.00,VWS V14.01,2013-04-25 20:31:00,
2013-04-25 16:36:00,71.1,43.5,30.24,North,355,3.0,6.0,37,0.00,,---,0.00,VWS V14.01,2013-04-25 20:36:00,
2013-04-25 16:41:00,70.9,41.2,30.24,NW,311,1.0,6.0,34,0.00,,---,0.00,VWS V14.01,2013-04-25 20:41:00,
2013-04-25 16:46:00,70.2,42.0,30.24,NNW,338,1.0,3.0,36,0.00,,---,0.00,VWS V14.01,2013-04-25 20:46:00,
2013-04-25 16:51:00,70.9,44.0,30.24,NNE,12,0.0,5.0,38,0.00,,---,0.00,VWS V14.01,2013-04-25 20:51:00,
2013-04-25 16:56:00,70.3,40.6,30.23,SSE,152,1.0,5.0,34,0.00,,---,0.00,VWS V14.01,2013-04-25 20:56:00,
2013-04-25 17:01:00,69.9,41.8,30.23,SE,146,0.0,2.0,36,0.00,,---,0.00,VWS V14.01,2013-04-25 21:01:00,
2013-04-25 17:06:00,70.7,39.4,30.24,North,355,0.0,7.0,32,0.00,,---,0.00,VWS V14.01,2013-04-25 21:06:00,
2013-04-25 17:11:00,70.7,38.6,30.24,NW,315,3.0,7.0,31,0.00,,---,0.00,VWS V14.01,2013-04-25 21:11:00,
2013-04-25 17:17:00,70.6,39.3,30.23,NW,320,3.0,4.0,32,0.00,,---,0.00,VWS V14.01,2013-04-25 21:17:00,
2013-04-25 17:22:00,70.6,39.3,30.24,NW,310,2.0,8.0,32,0.00,,---,0.00,VWS V14.01,2013-04-25 21:22:00,
2013-04-25 17:27:00,70.5,39.2,30.24,ENE,61,1.0,8.0,32,0.00,,---,0.00,VWS V14.01,2013-04-25 21:27:00,
2013-04-25 17:32:00,70.4,38.3,30.24,North,350,0.0,3.0,31,0.00,,---,0.00,VWS V14.01,2013-04-25 21:32:00,
2013-04-25 17:37:00,70.2,39.8,30.24,NNW,335,1.0,5.0,33,0.00,,---,0.00,VWS V14.01,2013-04-25 21:37:00,
2013-04-25 17:42:00,70.5,40.0,30.24,NNW,333,2.0,5.0,33,0.00,,---,0.00,VWS V14.01,2013-04-25 21:42:00,
2013-04-25 17:47:00,70.6,41.7,30.24,NNE,13,1.0,7.0,35,0.00,,---,0.00,VWS V14.01,2013-04-25 21:47:00,
2013-04-25 17:52:00,70.3,38.3,30.24,ESE,111,0.0,7.0,31,0.00,,---,0.00,VWS V14.01,2013-04-25 21:52:00,
2013-04-25 17:57:00,70.5,40.0,30.24,NNW,327,0.0,7.0,33,0.00,,---,0.00,VWS V14.01,2013-04-25 21:57:00,
2013-04-25 18:02:00,70.4,41.5,30.24,WNW,298,1.0,2.0,35,0.00,,---,0.00,VWS V14.01,2013-04-25 22:02:00,
2013-04-25 18:08:00,70.1,38.1,30.24,WNW,291,0.0,3.0,31,0.00,,---,0.00,VWS V14.01,2013-04-25 22:08:00,
2013-04-25 18:13:00,69.2,39.7,30.24,SE,129,3.0,5.0,34,0.00,,---,0.00,VWS V14.01,2013-04-25 22:13:00,
2013-04-25 18:18:00,69.9,41.8,30.24,East,85,1.0,2.0,36,0.00,,---,0.00,VWS V14.01,2013-04-25 22:18:00,
2013-04-25 18:23:00,69.5,40.7,30.24,ESE,103,0.0,2.0,35,0.00,,---,0.00,VWS V14.01,2013-04-25 22:23:00,
2013-04-25 18:28:00,69.3,40.5,30.24,NNE,12,2.0,3.0,35,0.00,,---,0.00,VWS V14.01,2013-04-25 22:28:00,
2013-04-25 18:33:00,69.4,39.1,30.24,North,355,0.0,2.0,33,0.00,,---,0.00,VWS V14.01,2013-04-25 22:33:00,
2013-04-25 18:38:00,69.8,40.2,30.24,NNE,30,0.0,2.0,34,0.00,,---,0.00,VWS V14.01,2013-04-25 22:38:00,
2013-04-25 18:43:00,69.3,37.4,30.24,East,96,0.0,3.0,31,0.00,,---,0.00,VWS V14.01,2013-04-25 22:43:00,
2013-04-25 18:48:00,69.1,38.0,30.24,ENE,76,0.0,4.0,32,0.00,,---,0.00,VWS V14.01,2013-04-25 22:48:00,
2013-04-25 18:53:00,68.5,37.5,30.24,ENE,65,0.0,4.0,32,0.00,,---,0.00,VWS V14.01,2013-04-25 22:53:00,
2013-04-25 18:59:00,68.3,38.1,30.24,East,99,2.0,6.0,33,0.00,,---,0.00,VWS V14.01,2013-04-25 22:59:00,
2013-04-25 19:04:00,68.1,37.9,30.24,ENE,77,0.0,1.0,33,0.00,,---,0.00,VWS V14.01,2013-04-25 23:04:00,
2013-04-25 19:09:00,68.1,40.2,30.24,ENE,64,0.0,2.0,36,0.00,,---,0.00,VWS V14.01,2013-04-25 23:09:00,
2013-04-25 19:14:00,67.9,39.3,30.25,ENE,63,0.0,2.0,35,0.00,,---,0.00,VWS V14.01,2013-04-25 23:14:00,
2013-04-25 19:19:00,67.7,39.1,30.25,ENE,63,0.0,1.0,35,0.00,,---,0.00,VWS V14.01,2013-04-25 23:19:00,
2013-04-25 19:24:00,67.2,40.1,30.25,ENE,63,0.0,1.0,37,0.00,,---,0.00,VWS V14.01,2013-04-25 23:24:00,
2013-04-25 19:29:00,66.6,40.9,30.25,ENE,63,0.0,1.0,39,0.00,,---,0.00,VWS V14.01,2013-04-25 23:29:00,
2013-04-25 19:34:00,65.7,42.0,30.25,ENE,63,0.0,0.0,42,0.00,,---,0.00,VWS V14.01,2013-04-25 23:34:00,
2013-04-25 19:39:00,64.8,41.8,30.25,ENE,63,0.0,1.0,43,0.00,,---,0.00,VWS V14.01,2013-04-25 23:39:00,
2013-04-25 19:44:00,63.6,42.5,30.25,ENE,63,0.0,1.0,46,0.00,,---,0.00,VWS V14.01,2013-04-25 23:44:00,
2013-04-25 19:50:00,62.1,43.3,30.25,ENE,63,0.0,0.0,50,0.00,,---,0.00,VWS V14.01,2013-04-25 23:50:00,
2013-04-25 19:55:00,60.7,42.0,30.25,ENE,63,0.0,0.0,50,0.00,,---,0.00,VWS V14.01,2013-04-25 23:55:00,
2013-04-25 20:00:00,59.6,41.5,30.25,ENE,63,0.0,0.0,51,0.00,,---,0.00,VWS V14.01,2013-04-26 00:00:00,
2013-04-25 20:05:00,58.5,41.5,30.26,ENE,63,0.0,0.0,53,0.00,,---,0.00,VWS V14.01,2013-04-26 00:05:00,
2013-04-25 20:10:00,57.6,41.1,30.26,ENE,63,0.0,0.0,54,0.00,,---,0.00,VWS V14.01,2013-04-26 00:10:00,
2013-04-25 20:15:00,56.9,40.9,30.26,ENE,63,0.0,0.0,55,0.00,,---,0.00,VWS V14.01,2013-04-26 00:15:00,
2013-04-25 20:20:00,56.6,40.6,30.26,ENE,63,0.0,0.0,55,0.00,,---,0.00,VWS V14.01,2013-04-26 00:20:00,
2013-04-25 20:25:00,55.7,41.2,30.27,ENE,63,0.0,0.0,58,0.00,,---,0.00,VWS V14.01,2013-04-26 00:25:00,
2013-04-25 20:30:00,55.0,41.0,30.27,ENE,63,0.0,0.0,59,0.00,,---,0.00,VWS V14.01,2013-04-26 00:30:00,
2013-04-25 20:35:00,54.4,40.8,30.27,ENE,63,0.0,0.0,60,0.00,,---,0.00,VWS V14.01,2013-04-26 00:35:00,
2013-04-25 20:40:00,54.0,41.3,30.27,ENE,63,0.0,0.0,62,0.00,,---,0.00,VWS V14.01,2013-04-26 00:40:00,
2013-04-25 20:45:00,53.5,41.2,30.27,ENE,63,0.0,0.0,63,0.00,,---,0.00,VWS V14.01,2013-04-26 00:45:00,
2013-04-25 20:50:00,53.0,41.6,30.27,ENE,63,0.0,0.0,65,0.00,,---,0.00,VWS V14.01,2013-04-26 00:50:00,
2013-04-25 20:55:00,53.5,42.0,30.28,ENE,63,0.0,0.0,65,0.00,,---,0.00,VWS V14.01,2013-04-26 00:55:00,
2013-04-25 21:01:00,52.8,42.2,30.28,ENE,63,0.0,0.0,67,0.00,,---,0.00,VWS V14.01,2013-04-26 01:01:00,
2013-04-25 21:06:00,52.1,41.9,30.28,ENE,63,0.0,0.0,68,0.00,,---,0.00,VWS V14.01,2013-04-26 01:06:00,
2013-04-25 21:11:00,51.5,42.0,30.28,ENE,63,0.0,0.0,70,0.00,,---,0.00,VWS V14.01,2013-04-26 01:11:00,
2013-04-25 21:16:00,51.0,42.3,30.29,ENE,63,0.0,0.0,72,0.00,,---,0.00,VWS V14.01,2013-04-26 01:16:00,
2013-04-25 21:21:00,50.8,42.5,30.29,ENE,63,0.0,0.0,73,0.00,,---,0.00,VWS V14.01,2013-04-26 01:21:00,
2013-04-25 21:26:00,50.5,42.9,30.29,ENE,63,0.0,0.0,75,0.00,,---,0.00,VWS V14.01,2013-04-26 01:26:00,
2013-04-25 21:31:00,50.4,42.8,30.29,ENE,63,0.0,0.0,75,0.00,,---,0.00,VWS V14.01,2013-04-26 01:31:00,
2013-04-25 21:36:00,50.2,43.3,30.30,ENE,63,0.0,0.0,77,0.00,,---,0.00,VWS V14.01,2013-04-26 01:36:00,
2013-04-25 21:41:00,49.8,42.9,30.30,ENE,63,0.0,0.0,77,0.00,,---,0.00,VWS V14.01,2013-04-26 01:41:00,
2013-04-25 21:47:00,49.9,43.0,30.30,ENE,63,0.0,0.0,77,0.00,,---,0.00,VWS V14.01,2013-04-26 01:47:00,
2013-04-25 21:52:00,49.4,42.8,30.30,ENE,63,0.0,0.0,78,0.00,,---,0.00,VWS V14.01,2013-04-26 01:52:00,
2013-04-25 21:57:00,49.3,43.4,30.30,ENE,63,0.0,0.0,80,0.00,,---,0.00,VWS V14.01,2013-04-26 01:57:00,
2013-04-25 22:02:00,49.7,43.8,30.31,ENE,63,0.0,0.0,80,0.00,,---,0.00,VWS V14.01,2013-04-26 02:02:00,
2013-04-25 22:07:00,49.6,43.4,30.31,ENE,63,0.0,0.0,79,0.00,,---,0.00,VWS V14.01,2013-04-26 02:07:00,
2013-04-25 22:12:00,49.0,43.1,30.31,ENE,63,0.0,0.0,80,0.00,,---,0.00,VWS V14.01,2013-04-26 02:12:00,
2013-04-25 22:17:00,48.5,43.0,30.31,ENE,63,0.0,0.0,81,0.00,,---,0.00,VWS V14.01,2013-04-26 02:17:00,
2013-04-25 22:22:00,48.2,43.0,30.31,ENE,63,0.0,0.0,82,0.00,,---,0.00,VWS V14.01,2013-04-26 02:22:00,
2013-04-25 22:27:00,48.0,43.1,30.31,ENE,63,0.0,0.0,83,0.00,,---,0.00,VWS V14.01,2013-04-26 02:27:00,
2013-04-25 22:32:00,47.7,43.1,30.31,ENE,63,0.0,0.0,84,0.00,,---,0.00,VWS V14.01,2013-04-26 02:32:00,
2013-04-25 22:37:00,47.6,43.0,30.31,ENE,63,0.0,0.0,84,0.00,,---,0.00,VWS V14.01,2013-04-26 02:37:00,
2013-04-25 22:43:00,47.3,42.7,30.31,ENE,63,0.0,0.0,84,0.00,,---,0.00,VWS V14.01,2013-04-26 02:43:00,
2013-04-25 22:48:00,47.1,42.8,30.31,ENE,63,0.0,0.0,85,0.00,,---,0.00,VWS V14.01,2013-04-26 02:48:00,
2013-04-25 22:53:00,46.9,42.9,30.32,ENE,63,0.0,0.0,86,0.00,,---,0.00,VWS V14.01,2013-04-26 02:53:00,
2013-04-25 22:58:00,46.8,42.8,30.31,ENE,63,0.0,0.0,86,0.00,,---,0.00,VWS V14.01,2013-04-26 02:58:00,
2013-04-25 23:03:00,46.5,42.5,30.32,ENE,63,0.0,0.0,86,0.00,,---,0.00,VWS V14.01,2013-04-26 03:03:00,
2013-04-25 23:08:00,46.4,42.5,30.32,ENE,63,0.0,0.0,86,0.00,,---,0.00,VWS V14.01,2013-04-26 03:08:00,
2013-04-25 23:13:00,46.4,42.5,30.32,ENE,63,0.0,0.0,86,0.00,,---,0.00,VWS V14.01,2013-04-26 03:13:00,
2013-04-25 23:18:00,46.1,42.2,30.32,ENE,63,0.0,0.0,86,0.00,,---,0.00,VWS V14.01,2013-04-26 03:18:00,
2013-04-25 23:23:00,45.9,42.0,30.31,ENE,63,0.0,0.0,86,0.00,,---,0.00,VWS V14.01,2013-04-26 03:23:00,
2013-04-25 23:28:00,45.7,42.1,30.32,ENE,63,0.0,0.0,87,0.00,,---,0.00,VWS V14.01,2013-04-26 03:28:00,
2013-04-25 23:33:00,45.5,41.9,30.32,ENE,63,0.0,0.0,87,0.00,,---,0.00,VWS V14.01,2013-04-26 03:33:00,
2013-04-25 23:38:00,45.3,42.0,30.32,ENE,63,0.0,0.0,88,0.00,,---,0.00,VWS V14.01,2013-04-26 03:38:00,
2013-04-25 23:44:00,45.1,41.8,30.32,ENE,63,0.0,0.0,88,0.00,,---,0.00,VWS V14.01,2013-04-26 03:44:00,
2013-04-25 23:49:00,45.1,42.1,30.32,ENE,63,0.0,0.0,89,0.00,,---,0.00,VWS V14.01,2013-04-26 03:49:00,
2013-04-25 23:54:00,45.1,42.1,30.32,ENE,63,0.0,0.0,89,0.00,,---,0.00,VWS V14.01,2013-04-26 03:54:00,
2013-04-25 23:59:00,45.1,42.1,30.32,ENE,63,0.0,0.0,89,0.00,,---,0.00,VWS V14.01,2013-04-26 03:59:00,